Weather Roundup
Issued by NWS Chicago, IL

Home | Current Version | Previous Version | Graphics & Text | Print | Product List | Glossary On
Versions: 1 2 3 4 5 6 7 8 9 10 11 12 13 14 15 16 17 18 19 20 21 22 23 24 25 26 27 28 29 30 31 32 33 34 35 36 37 38 39 40 41 42 43 44 45 46 47 48 49 50
950
NZUS59 KLOT 240404
HRRLOT

CHICAGO AREA WEATHER ROUNDUP
NATIONAL WEATHER SERVICE CHICAGO/ROMEOVILLE IL
1100 PM CDT SAT JUL 23 2016

NOTE: "FAIR" INDICATES FEW OR NO CLOUDS BELOW 12,000 FEET WITH NO
SIGNIFICANT WEATHER AND/OR OBSTRUCTIONS TO VISIBILITY.

* THESE STATIONS ARE NOT UNDER NWS QUALITY CONTROL. THEY ALSO MAY NOT
  REPORT WEATHER SUCH AS PRECIPITATION OR FOG.

ILZ005-006-012>014-019>023-240500-
NORTHEAST ILLINOIS

CITY           SKY/WX    TMP DP  RH WIND       PRES   REMARKS
OHARE          TSTM      71  69  93 E10       29.99F
MIDWAY         TSTM      72  70  93 SW5       30.00R
AURORA         TSTM      72  70  93 SE7       29.98R
LANSING*       CLOUDY    74  69  83 NW15G30   30.04R
WAUKEGAN       LGT RAIN  71  69  93 S12       29.97S
DUPAGE AIRPORT TSTM      71  68  90 SE9       29.99R FOG
WHEELING       LGT RAIN  71  68  90 SE12      29.99F FOG
MORRIS*        TSTM      72  71  95 NE3G17    29.97S
NORTHERLY ISL    N/A     71  68  90 N6          N/A
$$

WIZ051-052-058>065-066-070>072-240500-
SOUTHEAST WISCONSIN

CITY           SKY/WX    TMP DP  RH WIND       PRES   REMARKS
MILWAUKEE      LGT RAIN  73  69  87 S15G25    29.93F
KENOSHA*       LGT RAIN  72  69  90 S9        29.97R
RACINE*        LGT RAIN  72  69  90 S9        29.96F
BURLINGTON     LGT RAIN  71  70  98 S6        29.95S
WAUKESHA       LGT RAIN  68  68 100 S10       29.94F
$$

INZ001>003-010>013-019-020-240500-
NORTHWEST INDIANA

CITY           SKY/WX    TMP DP  RH WIND       PRES   REMARKS
GARY*          CLOUDY    75  75 100 N15G40    30.05R
MICHIGAN CITY* NOT AVBL
RENSSELAER*    NOT AVBL
VALPARAISO     CLOUDY    75  69  81 S6        29.96S
$$

LMZ740>746-240500-
SOUTHERN LAKE MICHIGAN

STATION/POSITION TIME  SKY/WX   TEMP WIND        PRES    VSBY
                                AIR  DIR/SP/G
                 (UTC)          (F)  (DEG/KT/KT) (MB)    (MI)
HARRISON CRIB    0300            78  330/ 14/ 16   N/A
BURNHAM HARBOR   0400            70   CALM  / 16   N/A
CALUMET HARBOR   0300            77                N/A
BURNS HARBOR     0301            77  130/  9/ 20 1013.9F
MICHIGAN CITY    0300            74  110/ 12/ 14   N/A
$$

ABBREVIATIONS USED IN REMARKS
   TC - TEMPERATURE IN CELSIUS
  WCI - WIND CHILL INDEX
   HX - HEAT INDEX
  VSB - VISIBILITY
$$




USA.gov is the U.S. government's official web portal to all federal, state and local government web resources and services.